EW9991 Weather Reports


time (UTC)temp
C
wind
direction
speed
KPH
gust
KPH
rain 1hr
cm
rain 24hr
cm
rain mn
cm
humidity
%
barometer
mb
20260507101258 8 214 0.0 0.0 0.10 0.41 0.28 87 1007.0
20260507101014 8 213 0.0 0.0 0.10 0.38 0.25 87 1007.0
20260507100242 8 214 0.0 1.6 0.13 0.38 0.25 87 1007.0
20260507095732 8 214 0.0 1.6 0.13 0.38 0.25 86 1006.8
20260507095226 8 251 0.0 3.2 0.15 0.38 0.25 86 1006.7
20260507094727 8 289 0.0 3.2 0.15 0.38 0.25 86 1006.8
20260507094224 8 29 0.0 1.6 0.13 0.36 0.23 86 1006.7
20260507093721 8 29 0.0 3.2 0.13 0.36 0.23 86 1006.6
20260507093455 9 284 0.0 3.2 0.13 0.36 0.23 86 1006.7
20260507092723 9 355 0.0 6.4 0.13 0.36 0.23 86 1006.8
20260507092452 9 45 0.0 6.4 0.15 0.36 0.23 86 1006.9
20260507091722 9 352 0.0 0.0 0.13 0.33 0.20 86 1006.8
20260507091220 9 352 0.0 0.0 0.10 0.30 0.18 86 1006.9
20260507090949 9 352 0.0 0.0 0.08 0.28 0.15 86 1007.0
20260507090217 9 352 0.0 1.6 0.05 0.25 0.13 86 1007.1
20260507085718 9 352 0.0 1.6 0.08 0.25 0.13 86 1007.2
20260507085218 9 352 0.0 4.8 0.05 0.23 0.10 86 1007.0
20260507084721 10 170 0.0 4.8 0.05 0.23 0.10 86 1007.0
20260507084218 10 22 0.0 0.0 0.08 0.23 0.10 85 1006.9
20260507083947 10 22 0.0 1.6 0.10 0.23 0.10 85 1006.9
20260507083448 10 22 0.0 1.6 0.10 0.23 0.10 85 1006.8
20260507082716 10 22 0.0 4.8 0.10 0.23 0.10 85 1006.7
20260507082216 10 22 0.0 4.8 0.08 0.20 0.10 85 1006.6
20260507081716 10 270 0.0 4.8 0.08 0.20 0.08 85 1006.4
20260507081202 10 167 0.0 3.2 0.08 0.20 0.08 85 1006.4
20260507080648 11 241 0.0 4.8 0.08 0.20 0.08 85 1006.7
20260507080148 11 324 0.0 4.8 0.08 0.20 0.08 85 1006.6
20260507075645 11 272 0.0 4.8 0.05 0.18 0.05 85 1006.6
20260507075144 11 272 0.0 4.8 0.05 0.18 0.05 85 1006.6
20260507074646 11 145 0.0 1.6 0.05 0.18 0.05 84 1006.3
20260507074144 11 256 0.0 1.6 0.03 0.15 0.03 84 1006.4
20260507073641 11 255 0.0 1.6 0.00 0.13 0.00 83 1006.5
20260507073139 11 250 0.0 1.6 0.00 0.13 0.00 83 1006.6
20260507072908 11 250 0.0 1.6 0.00 0.13 0.00 83 1006.0
20260507072409 11 27 0.0 1.6 0.00 0.13 0.00 82 1005.8
20260507072245 11 38 0.0 1.6 0.00 0.13 0.00 82 1005.7
20260507071135 11 37 0.0 1.6 0.00 0.13 0.00 82 1005.8
20260507070634 11 13 0.0 0.0 0.00 0.13 0.00 82 1006.0
20260507070124 11 13 0.0 4.8 0.00 0.13 0.00 82 1005.9
20260507065621 12 13 0.0 4.8 0.00 0.13 0.00 81 1005.8
20260507065353 12 345 0.0 4.8 0.00 0.13 0.00 81 1005.8
20260507064855 12 158 0.0 3.2 0.00 0.13 0.00 82 1005.9
20260507064122 12 108 0.0 1.6 0.00 0.13 0.00 84 1005.9
20260507063624 12 12 0.0 11.3 0.00 0.13 0.00 84 1006.0
20260507063619 12 12 0.0 1.6 0.00 0.13 0.00 84 1005.9
20260507062848 12 12 0.0 11.3 0.00 0.13 0.00 85 1005.9
20260507062118 12 39 0.0 1.6 0.00 0.13 0.00 84 1005.8
20260507061618 13 76 0.0 3.2 0.00 0.13 0.00 85 1005.7
20260507061117 13 137 0.0 3.2 0.00 0.13 0.00 85 1005.6
20260507060616 13 22 0.0 3.2 0.00 0.13 0.00 85 1005.9
20260507060104 13 22 0.0 3.2 0.00 0.13 0.00 85 1005.9
20260507055604 13 140 0.0 1.6 0.00 0.13 0.00 85 1005.9
20260507055101 13 133 0.0 1.6 0.00 0.13 0.00 85 1005.8
20260507054602 13 133 0.0 1.6 0.00 0.13 0.00 85 1006.0
20260507054059 13 203 0.0 1.6 0.00 0.13 0.00 85 1006.2
20260507053832 13 209 0.0 0.0 0.00 0.13 0.00 85 1006.4
20260507053059 13 209 0.0 6.4 0.00 0.13 0.00 85 1006.2
20260507052559 13 209 0.0 6.4 0.00 0.13 0.00 84 1006.1
20260507052100 13 332 0.0 8.0 0.00 0.13 0.00 84 1006.0
20260507051556 13 332 0.0 8.0 0.00 0.13 0.00 85 1005.8
20260507051057 13 123 0.0 4.8 0.00 0.13 0.00 85 1005.7
20260507050556 14 262 0.0 4.8 0.00 0.13 0.00 85 1005.8
20260507050053 14 341 0.0 4.8 0.00 0.13 0.00 85 1005.8
20260507045552 14 7 0.0 6.4 0.00 0.13 0.00 85 1005.9
20260507045049 14 284 0.0 6.4 0.00 0.13 0.00 85 1006.0
20260507044549 14 270 0.0 3.2 0.00 0.13 0.00 85 1006.0
20260507044050 14 162 0.0 3.2 0.00 0.13 0.00 85 1005.8
20260507043550 14 143 0.0 3.2 0.00 0.13 0.00 85 1005.8
20260507043050 14 245 0.0 4.8 0.00 0.13 0.00 85 1005.8
20260507042549 14 302 0.0 4.8 0.00 0.13 0.00 86 1005.9
20260507042049 15 227 0.0 4.8 0.00 0.13 0.00 86 1005.9
20260507041550 15 268 0.0 3.2 0.00 0.13 0.00 86 1005.8
20260507041051 15 259 0.0 3.2 0.00 0.13 0.00 86 1005.8
20260507040549 15 237 0.0 3.2 0.00 0.13 0.00 86 1006.0
20260507040049 15 218 0.0 3.2 0.00 0.13 0.00 86 1006.3
20260507035550 15 218 0.0 4.8 0.00 0.13 0.13 86 1006.2
20260507035050 15 218 1.6 4.8 0.00 0.13 0.13 86 1006.0
20260507034549 15 218 1.6 8.0 0.00 0.13 0.13 86 1005.9
20260507034047 15 209 1.6 8.0 0.00 0.13 0.13 86 1005.9
20260507033546 15 204 1.6 6.4 0.00 0.13 0.13 86 1005.7
20260507033045 15 205 0.0 4.8 0.00 0.13 0.13 86 1005.8
20260507032545 15 205 1.6 4.8 0.00 0.13 0.13 86 1005.8
20260507032048 15 203 1.6 8.0 0.00 0.13 0.13 86 1005.6
20260507031818 15 203 3.2 9.7 0.00 0.13 0.13 86 1005.4
20260507031048 15 208 3.2 9.7 0.00 0.13 0.13 86 1005.4
20260507030547 15 208 1.6 8.0 0.00 0.13 0.13 86 1005.4
20260507030047 15 210 3.2 6.4 0.00 0.13 0.13 86 1005.3
20260507025545 15 210 3.2 6.4 0.00 0.13 0.13 86 1005.1
20260507025046 15 198 3.2 9.7 0.00 0.13 0.13 86 1005.2
20260507024545 15 300 3.2 9.7 0.00 0.13 0.13 86 1005.3
20260507024045 15 194 3.2 9.7 0.00 0.13 0.13 86 1005.5
20260507023815 14 202 3.2 8.0 0.00 0.13 0.13 86 1005.5
20260507023316 14 205 1.6 8.0 0.00 0.13 0.13 86 1005.5
20260507022544 14 205 1.6 8.0 0.00 0.13 0.13 86 1005.5
20260507022041 14 226 3.2 8.0 0.00 0.13 0.13 86 1005.4
20260507021542 14 192 1.6 8.0 0.00 0.13 0.13 86 1005.5
20260507021314 14 189 1.6 8.0 0.00 0.13 0.13 86 1005.4
20260507020539 14 185 1.6 8.0 0.00 0.13 0.13 86 1005.4
20260507020038 14 208 1.6 8.0 0.00 0.13 0.13 86 1005.4
20260507015535 14 206 3.2 8.0 0.00 0.13 0.13 86 1005.4
20260507015032 14 190 3.2 8.0 0.00 0.13 0.13 86 1005.4
20260507014532 14 220 3.2 8.0 0.00 0.13 0.13 86 1005.5
20260507014017 14 214 3.2 8.0 0.00 0.13 0.13 86 1005.5
20260507013517 14 217 3.2 8.0 0.00 0.13 0.13 86 1005.5
20260507013018 14 210 3.2 11.3 0.00 0.13 0.13 86 1005.5
20260507012517 14 212 3.2 11.3 0.00 0.13 0.13 86 1005.6
20260507012017 14 206 4.8 9.7 0.00 0.13 0.13 86 1005.7
20260507011515 14 211 3.2 8.0 0.00 0.13 0.13 86 1005.7
20260507011015 14 189 3.2 12.9 0.00 0.13 0.13 86 1005.7
20260507010516 14 214 3.2 12.9 0.00 0.13 0.13 86 1005.7
20260507010246 14 207 4.8 9.7 0.00 0.13 0.13 86 1005.8
20260507005517 14 182 3.2 9.7 0.00 0.13 0.13 86 1005.8
20260507005016 13 202 3.2 6.4 0.00 0.13 0.13 86 1005.8
20260507004515 13 200 3.2 9.7 0.00 0.13 0.13 86 1005.8
20260507004015 14 234 3.2 9.7 0.00 0.13 0.13 86 1005.7
20260507003513 14 198 3.2 12.9 0.00 0.13 0.13 86 1005.7
20260507003014 14 208 3.2 12.9 0.03 0.13 0.13 86 1005.7
20260507002513 14 197 3.2 14.5 0.03 0.13 0.13 86 1005.8
20260507002011 14 218 3.2 14.5 0.03 0.13 0.13 86 1005.7
20260507001509 14 147 3.2 9.7 0.05 0.13 0.13 86 1005.7
20260507001007 14 205 4.8 9.7 0.05 0.13 0.13 86 1005.6
20260507000507 14 197 4.8 11.3 0.05 0.13 0.13 86 1005.5
20260507000007 14 205 4.8 11.3 0.05 0.13 0.13 86 1005.4
20260506235500 14 199 4.8 9.7 0.05 0.13 0.13 86 1005.4
20260506234954 14 204 3.2 9.7 0.05 0.13 0.13 86 1005.5
20260506234447 14 207 3.2 11.3 0.05 0.13 0.13 86 1005.6
20260506233947 14 196 4.8 11.3 0.05 0.13 0.13 85 1005.6
20260506233447 14 205 3.2 11.3 0.05 0.13 0.13 85 1005.5
20260506232945 15 200 4.8 12.9 0.03 0.10 0.10 85 1005.4
20260506232445 15 212 4.8 12.9 0.03 0.10 0.10 85 1005.4
20260506231943 15 308 3.2 9.7 0.03 0.10 0.10 85 1005.4
20260506231712 15 201 3.2 9.7 0.00 0.08 0.08 85 1005.4
20260506230941 15 209 3.2 8.0 0.00 0.08 0.08 85 1005.4
20260506230441 15 192 3.2 9.7 0.00 0.08 0.08 85 1005.4
20260506225939 15 198 3.2 9.7 0.00 0.08 0.08 85 1005.4
20260506225708 15 214 3.2 8.0 0.00 0.08 0.08 85 1005.4
20260506224931 15 205 4.8 11.3 0.03 0.08 0.08 85 1005.5
20260506224421 15 216 4.8 12.9 0.03 0.08 0.08 85 1005.5
20260506223913 15 216 4.8 12.9 0.03 0.08 0.08 85 1005.6
20260506223413 15 206 4.8 12.9 0.03 0.08 0.08 85 1005.6
20260506222913 15 220 4.8 12.9 0.03 0.08 0.08 85 1005.7
20260506222413 15 206 4.8 11.3 0.03 0.08 0.08 85 1005.7
20260506221913 15 210 6.4 11.3 0.03 0.08 0.08 85 1005.8
20260506221413 15 207 4.8 11.3 0.03 0.08 0.08 85 1005.8
20260506220913 15 208 4.8 11.3 0.03 0.08 0.08 85 1005.8
20260506220413 15 208 3.2 9.7 0.03 0.08 0.08 85 1005.8
20260506220144 15 207 4.8 9.7 0.03 0.08 0.08 84 1005.9
20260506215413 15 214 6.4 16.1 0.03 0.08 0.08 84 1006.1
20260506214915 16 195 4.8 16.1 0.00 0.05 0.05 84 1006.1
20260506214410 16 237 4.8 12.9 0.00 0.05 0.05 83 1006.2
20260506213853 16 201 4.8 14.5 0.00 0.05 0.05 83 1006.2
20260506213339 16 204 4.8 16.1 0.00 0.05 0.05 83 1006.4
20260506212833 16 208 4.8 16.1 0.00 0.05 0.05 83 1006.3
20260506212333 16 205 4.8 16.1 0.00 0.05 0.05 83 1006.3
20260506211831 16 203 4.8 16.1 0.00 0.05 0.05 82 1006.3
20260506211331 16 214 6.4 14.5 0.00 0.05 0.05 83 1006.2
20260506210831 16 188 6.4 14.5 0.00 0.05 0.05 83 1006.3
20260506210331 16 133 4.8 9.7 0.00 0.05 0.05 83 1006.3
20260506205831 16 205 3.2 12.9 0.00 0.05 0.05 82 1006.3
20260506205331 16 234 3.2 12.9 0.00 0.05 0.05 82 1006.4
20260506204830 16 199 4.8 12.9 0.03 0.05 0.05 82 1006.5
20260506204331 16 215 6.4 14.5 0.03 0.05 0.05 81 1006.7
20260506203829 16 187 6.4 16.1 0.03 0.05 0.05 81 1006.6
20260506203312 16 208 4.8 16.1 0.03 0.05 0.05 80 1006.6
20260506202758 16 216 4.8 12.9 0.03 0.05 0.05 80 1006.5
20260506202255 16 207 3.2 8.0 0.05 0.05 0.05 80 1006.5
20260506201755 16 210 4.8 14.5 0.05 0.05 0.05 80 1006.5
20260506201254 16 205 4.8 14.5 0.05 0.05 0.05 80 1006.5
20260506200755 16 201 4.8 9.7 0.05 0.05 0.05 80 1006.4
20260506200527 16 208 4.8 9.7 0.05 0.05 0.05 80 1006.3
20260506195754 17 197 4.8 11.3 0.05 0.05 0.05 79 1006.3
20260506195255 17 206 4.8 11.3 0.05 0.05 0.05 79 1006.3
20260506194755 17 227 3.2 14.5 0.03 0.03 0.03 79 1006.5
20260506194528 17 186 4.8 14.5 0.03 0.03 0.03 78 1006.7
20260506193753 17 197 4.8 12.9 0.03 0.03 0.03 77 1006.7
20260506193523 17 201 4.8 14.5 0.03 0.03 0.03 76 1006.8
20260506192757 18 302 4.8 17.7 0.00 0.00 0.00 73 1006.7
20260506192753 18 200 6.4 17.7 0.03 0.03 0.03 75 1006.8
20260506191752 18 184 4.8 11.3 0.00 0.00 0.00 71 1006.8
20260506191253 19 205 4.8 11.3 0.00 0.00 0.00 68 1006.6
20260506190753 20 199 4.8 9.7 0.00 0.00 0.00 66 1006.6
20260506190524 20 284 4.8 11.3 0.00 0.00 0.00 64 1006.5
20260506185753 20 210 4.8 11.3 0.00 0.00 0.00 64 1006.5
20260506185252 20 213 3.2 8.0 0.00 0.00 0.00 63 1006.6
20260506185024 20 194 3.2 12.9 0.00 0.00 0.00 63 1006.7
20260506184525 20 201 4.8 12.9 0.00 0.00 0.00 62 1006.7
20260506183753 20 154 6.4 12.9 0.00 0.00 0.00 61 1006.7
20260506183253 21 189 6.4 17.7 0.00 0.00 0.00 59 1006.8
20260506183023 21 259 6.4 17.7 0.00 0.00 0.00 58 1006.7
20260506182253 21 204 6.4 16.1 0.00 0.00 0.00 58 1006.8
20260506181752 21 203 6.4 16.1 0.00 0.00 0.00 58 1006.7
20260506181250 21 203 6.4 16.1 0.00 0.00 0.00 58 1006.7
20260506180745 21 177 8.0 16.1 0.00 0.00 0.00 58 1006.7
20260506180242 21 208 8.0 16.1 0.00 0.00 0.00 58 1006.9
20260506175737 21 194 8.0 16.1 0.00 0.00 0.00 58 1007.0
20260506175237 21 199 8.0 16.1 0.00 0.00 0.00 58 1007.1
20260506174735 21 195 8.0 14.5 0.00 0.00 0.00 58 1007.1
20260506174234 22 183 6.4 14.5 0.00 0.00 0.00 58 1007.0
20260506173734 21 234 4.8 16.1 0.00 0.00 0.00 59 1007.0
20260506173235 21 208 6.4 17.7 0.00 0.00 0.00 59 1007.2
20260506172734 21 187 6.4 17.7 0.00 0.00 0.00 58 1007.2
20260506172235 21 219 6.4 14.5 0.00 0.00 0.00 58 1007.2
20260506171735 21 205 4.8 12.9 0.00 0.00 0.00 58 1007.2
20260506171234 21 201 6.4 17.7 0.00 0.00 0.00 59 1007.2
20260506170735 21 218 6.4 17.7 0.00 0.00 0.00 59 1007.2
20260506170234 21 216 4.8 12.9 0.00 0.00 0.00 59 1007.2
20260506165732 21 178 4.8 12.9 0.00 0.00 0.00 60 1007.3
20260506165233 21 214 6.4 17.7 0.00 0.00 0.00 59 1007.5
20260506164726 21 217 4.8 17.7 0.00 0.00 0.00 60 1007.5
20260506164458 21 190 4.8 12.9 0.00 0.00 0.00 60 1007.5
20260506163725 21 176 4.8 14.5 0.00 0.00 0.00 60 1007.5
20260506163224 21 155 6.4 16.1 0.00 0.00 0.00 59 1007.6
20260506162724 21 216 6.4 16.1 0.00 0.00 0.00 59 1007.7
20260506162457 21 216 4.8 14.5 0.00 0.00 0.00 59 1007.8
20260506161711 21 201 6.4 12.9 0.00 0.00 0.00 59 1007.9
20260506161207 21 167 6.4 14.5 0.00 0.00 0.00 59 1008.0
20260506160706 21 156 6.4 14.5 0.00 0.00 0.00 58 1008.1
20260506160206 21 203 6.4 12.9 0.00 0.00 0.00 58 1008.1
20260506155706 21 201 4.8 11.3 0.00 0.00 0.00 58 1008.3
20260506155206 21 212 4.8 11.3 0.00 0.00 0.00 58 1008.4
20260506154706 21 209 6.4 12.9 0.00 0.00 0.00 58 1008.4
20260506154207 21 187 6.4 12.9 0.00 0.00 0.00 58 1008.5
20260506153706 21 233 6.4 16.1 0.00 0.00 0.00 58 1008.5
20260506153206 21 195 6.4 16.1 0.00 0.00 0.00 57 1008.7
20260506152935 22 213 4.8 14.5 0.00 0.00 0.00 56 1008.7
20260506152811 22 197 4.8 12.9 0.00 0.00 0.00 57 1008.7
20260506151705 22 205 4.8 9.7 0.00 0.00 0.00 58 1008.7
20260506151148 21 195 4.8 11.3 0.00 0.00 0.00 59 1008.7
20260506150640 21 199 6.4 14.5 0.00 0.00 0.00 60 1008.9
20260506150636 21 201 4.8 12.9 0.00 0.00 0.00 59 1008.8
20260506150243 21 235 4.8 14.5 0.00 0.00 0.00 61 1009.1
20260506145136 21 197 4.8 11.3 0.00 0.00 0.00 61 1008.9
20260506144634 21 195 4.8 11.3 0.00 0.00 0.00 61 1008.8
20260506144133 20 168 6.4 16.1 0.00 0.00 0.00 64 1008.8
20260506143630 20 203 6.4 16.1 0.00 0.00 0.00 64 1008.8
20260506143130 20 203 6.4 9.7 0.00 0.00 0.00 64 1008.8
20260506142904 20 182 4.8 12.9 0.00 0.00 0.00 64 1008.8
20260506142130 20 234 4.8 12.9 0.00 0.00 0.00 65 1008.7
20260506141628 20 223 4.8 12.9 0.00 0.00 0.00 66 1008.8
20260506141127 19 284 4.8 12.9 0.00 0.00 0.00 67 1008.8
20260506140612 19 22 4.8 11.3 0.00 0.00 0.00 68 1008.9
20260506140329 18 206 4.8 11.3 0.00 0.00 0.00 68 1008.9
20260506135816 18 191 4.8 14.5 0.00 0.00 0.00 69 1008.9
20260506135040 18 203 4.8 14.5 0.00 0.00 0.00 70 1008.9
20260506134540 18 214 4.8 12.9 0.00 0.00 0.00 71 1009.0
20260506134040 18 178 4.8 9.7 0.00 0.00 0.00 71 1009.2
20260506133541 18 233 4.8 9.7 0.00 0.00 0.00 72 1009.4
20260506133038 18 207 6.4 12.9 0.00 0.00 0.00 72 1009.5
20260506132807 18 178 4.8 12.9 0.00 0.00 0.00 72 1009.6
20260506132036 17 195 3.2 9.7 0.00 0.00 0.00 73 1009.5
20260506131537 17 205 3.2 8.0 0.00 0.00 0.00 73 1009.5
20260506131033 17 178 4.8 11.3 0.00 0.00 0.00 73 1009.4
20260506130528 17 207 4.8 16.1 0.00 0.00 0.00 73 1009.4
20260506130028 17 208 6.4 16.1 0.00 0.00 0.00 73 1009.3
20260506125529 17 183 6.4 16.1 0.00 0.00 0.00 73 1009.3
20260506125028 17 265 4.8 14.5 0.00 0.00 0.00 74 1009.5
20260506124529 17 207 4.8 12.9 0.00 0.00 0.00 75 1009.4
20260506124028 17 228 4.8 12.9 0.00 0.00 0.00 75 1009.6
20260506123528 16 196 4.8 11.3 0.00 0.00 0.00 76 1009.6
20260506123028 16 188 4.8 11.3 0.00 0.00 0.00 76 1009.6
20260506122527 16 194 4.8 14.5 0.00 0.00 0.00 76 1009.6
20260506122022 16 209 4.8 14.5 0.00 0.00 0.00 76 1009.4
20260506121512 16 209 4.8 9.7 0.00 0.00 0.00 77 1009.4
20260506121008 16 198 4.8 12.9 0.00 0.00 0.00 77 1009.4
20260506120507 16 195 4.8 12.9 0.00 0.00 0.00 78 1009.5
20260506120241 16 193 4.8 12.9 0.00 0.00 0.00 78 1009.8
20260506115508 16 243 4.8 12.9 0.00 0.00 0.00 78 1009.8
20260506115008 16 180 4.8 16.1 0.00 0.00 0.00 78 1009.7
20260506114506 16 212 4.8 16.1 0.00 0.00 0.00 78 1009.8
20260506114236 16 198 4.8 14.5 0.00 0.00 0.00 78 1010.0
20260506113503 16 239 4.8 14.5 0.00 0.00 0.00 78 1010.0
20260506113234 16 206 4.8 12.9 0.00 0.00 0.00 78 1010.0
20260506112458 16 174 4.8 12.9 0.00 0.00 0.00 78 1009.9
20260506111952 16 199 3.2 8.0 0.00 0.00 0.00 78 1009.7
20260506111437 15 223 4.8 11.3 0.00 0.00 0.00 78 1009.9
20260506110930 15 200 4.8 11.3 0.00 0.00 0.00 78 1009.8
20260506110701 15 198 3.2 9.7 0.00 0.00 0.00 79 1009.7
20260506105929 15 204 4.8 11.3 0.00 0.00 0.00 79 1009.7
20260506105659 15 148 4.8 11.3 0.00 0.00 0.00 79 1009.7
20260506104929 15 177 4.8 14.5 0.00 0.00 0.00 79 1009.7
20260506104428 15 60 4.8 14.5 0.00 0.00 0.00 79 1009.8
20260506104157 15 186 4.8 8.0 0.00 0.00 0.00 79 1009.8
20260506103427 15 208 3.2 8.0 0.00 0.00 0.00 79 1009.8
20260506102926 15 210 4.8 9.7 0.00 0.00 0.00 79 1009.9
20260506102426 15 207 3.2 11.3 0.00 0.00 0.00 79 1009.9
20260506101924 15 194 3.2 11.3 0.00 0.00 0.00 79 1009.8